Jackpot

Texas Poker Multi Jackpot System

Kini Telah hadir Jackpot SUPER ROYAL FLUSH

Kini Telah hadir Jackpot 2000 (khusus table VIP keatas).

Ikutilah global jackpot yang tersedia di system kami, dengan system jackpot terbaru dan pertama di indonesia, anda dapat membeli jackpot dengan harga 100 rupiah saja dan menangkan hadiahnya hingga puluhan juta rupiah.

Jackpot bukanlah suatu keharusan untuk dibeli, namun kami memberikan suatu fitur tambahan untuk member tercinta dari www.mustikapoker.org.

Terdapat tiga pilihan harga jackpot yang bisa anda beli yaitu :100,500,1000 dan 2000(khusus table VIP Keatas) rupiah.

Hadiah dari Multi jackpot system www.mustikapoker.org

  1. full house x 10 harga jackpot yang anda beli.
      (contoh:anda membeli 1000 maka:1000 X10 = 10.000)
  2. four of kind x 250 harga jackpot yang anda beli
      (contoh:anda membeli 1000 maka:1000 X250 = 250.000)
  3. Straight flush x 1200
      (contoh:anda membeli 1000 maka:1000 X1200 = 1.200.000)
  4. Royal flush x 10000 harga jackpot yang anda beli
      (contoh:anda membeli 1000 maka:1000 X10000 = 10.000.000)
  5. SUPER ROYAL FLUSH x 30000 harga jackpot yang anda beli
      (contoh:anda membeli 1000 maka:1000 X30000 = 30.000.000)

Kondisi kartu

  1. full house adalah kondisi kartu dimana kartu anda dan kartu tengah dengan total 7 kartu bisa mendapatkan nilai 5 kartu dengan kombinasi 1 tris(three of kind) dan 1 pair, contoh 3 kartu 10 dan 2 kartu 5
  2. Four of kind adalah kondisi kartu dimana kartu anda dan kartu tengah dengan total 7 kartu bisa mendapatkan nilai 5 kartu dengan kombinasi 4 kartu yang sama jumlah dan 1 kartu apapun juga contoh anda mendapatkan 4 buah kartu angka 3 dan 1 kartu apapun.
  3. Staright flush adalah kondisi kartu dimana kartu anda dan kartu tengah dengan total 7 kartu bisa mendapatkan nilai 5 kartu dengan kombinasi seri / staright dengan kembang yang sama contoh : urutan kartu dari angka 5, 6, 7, 8 , 9 10 dengan kembang yg sama misalnya as hati
  4. Royal flush adalah kondisi kartu dimana kartu anda dan kartu tengah dengan total 7 kartu bisa mendapatkan nilai 5 kartu dengan kombinasi seri / staright dengan kembang yang sama tetapi kartu tersebut haruslah dimulai dari 10. contoh 10, Queen, Jack, King dan aces dengan kembang yang sama
  5. Super Royal flush adalah kondisi kartu dimana Kedua kartu anda digabung dengan 3 kartu pertama meja haruslah royal flush. contoh kartu anda 10,Queen kembang sama dan 3 kartu pertama meja adalah Jack, King dan aces dengan kembang yang sama

Demikian adalah penjelasan dari Multi Jackpot www.mustikapoker.org terima kasih dan selamat bermain salam hoki dari kami

Texas Poker Jackpot Winner

TOP SUPER ROYAL FLUSH
No.TanggalNamaPriceWin
121/06 22:44RUBINI8Super Royal flush3,000,000
221/06 22:11CERKYSuper Royal flush6,000,000
321/06 21:35AAKDEDY15Super Royal flush15,000,000
421/06 21:16TESS94Super Royal flush6,000,000
521/06 18:28SAHAT33333Super Royal flush15,000,000
TOP ROYAL FLUSH
No.TanggalNamaPriceWin
121/06 22:59LOOKAZZ99Royal flush1,000,000
221/06 22:56SPYDOLLRoyal flush500,000
321/06 22:50CAB0KRoyal flush1,000,000
421/06 22:43HJLEDISRoyal flush500,000
521/06 22:42CEPET6969Royal flush1,000,000
TOP STRAIGHT FLUSH
No.TanggalNamaPriceWin
121/06 23:13SANFARLEYStraight Flush600,000
221/06 23:11INRStraight Flush240,000
321/06 23:10JIREGEN88Straight Flush2,400,000
421/06 23:10ORONKTELUStraight Flush240,000
521/06 23:10KANIBAL19Straight Flush120,000
LATEST JACKPOT
No.TanggalNamaPriceWin
121/06 23:16MAN033Four Of A Kind50,000
221/06 23:16A6868Full House10,000
321/06 23:16K9MRGXQ1LYFull House2,000
421/06 23:16AADRAXB010Full House5,000
521/06 23:16LM8TEIVAYNFull House2,000
621/06 23:16BOLE90Full House5,000
721/06 23:16TUMBAS99Full House5,000
821/06 23:16ZAHIRA2011Full House2,000
921/06 23:16XEMEX77Four Of A Kind125,000
1021/06 23:16KENTIR99Full House2,000
1121/06 23:16HILLX78Full House10,000
1221/06 23:16BONGOH81Full House2,000
1321/06 23:16KISAN003Full House2,000
1421/06 23:16ZARA_1234Full House2,000
1521/06 23:16SEX_STAR55Full House1,000
1621/06 23:16SUAIB2727Full House5,000
1721/06 23:16UJADH26Full House5,000
1821/06 23:16ANDA220Full House5,000
1921/06 23:16ACEN89Full House2,000
2021/06 23:16GIZELLIN06Full House1,000
2121/06 23:16KIRA2Full House5,000
2221/06 23:16FL4ZZ45Full House2,000
2321/06 23:16WADON85Full House5,000
2421/06 23:16BRASMADA46Full House5,000
2521/06 23:16ITILKAUFull House1,000
2621/06 23:16BONQFull House2,000
2721/06 23:16UBAJENO22Full House10,000
2821/06 23:16JAMMES45Full House1,000
2921/06 23:16SIROK321Full House5,000
3021/06 23:16GARING17Full House1,000
3121/06 23:16THERONGZFull House10,000
3221/06 23:16GABLEK00Full House1,000
3321/06 23:16UJI407Full House1,000
3421/06 23:16SRTLGIO84Full House2,000
3521/06 23:16W4L1DFour Of A Kind50,000
3621/06 23:16SABA12WEEFull House2,000
3721/06 23:16SYAKI002Full House10,000
3821/06 23:16BRYANXXXFull House2,000
3921/06 23:16CTM28Full House2,000
4021/06 23:16MECE123Full House5,000
4121/06 23:16DUCGIANGFull House5,000
4221/06 23:16JOWO212Full House10,000
4321/06 23:16QROUND86Full House10,000
4421/06 23:16GAJAHBGRFull House2,000
4521/06 23:15BAYIPANDAFull House2,000
4621/06 23:15CMBQ57W3EJFull House2,000
4721/06 23:15PELAPELAFull House5,000
4821/06 23:15GOLDEN25Full House2,000
4921/06 23:15KELEPUI12Full House1,000
5021/06 23:15DOLPHINO01Full House500

Domino Multi Jackpot System

Ikutilah global jackpot yang tersedia di system kami, dengan system jackpot terbaru dan pertama di indonesia, anda dapat membeli jackpot dengan harga 100 rupiah saja dan menangkan hadiahnya hingga puluhan juta rupiah.

Jackpot bukanlah suatu keharusan untuk dibeli, namun kami memberikan suatu fitur tambahan untuk member tercinta dari www.mustikapoker.org.

Terdapat tiga pilihan harga jackpot yang bisa anda beli yaitu :100,500 dan 1000 rupiah.

Hadiah dari Multi jackpot system www.mustikapoker.org

  1. Murni Kecil x 50 harga jackpot yang anda beli.
      (contoh:anda membeli 1000 maka:1000 X 50 = 50.000)
  2. Murni Besar x 50 harga jackpot yang anda beli
      (contoh:anda membeli 1000 maka:1000 X 50 = 50.000)
  3. BALAK x 100 harga jackpot yang anda beli
      (contoh:anda membeli 1000 maka:1000 X 100 = 100.000)
  4. ENAM DEWA x 6666 harga jackpot yang anda beli
      (contoh:anda membeli 1000 maka:1000 X 6666 = 6.666.000)

Demikian adalah penjelasan dari Multi Jackpot www.mustikapoker.org terima kasih dan selamat bermain salam hoki dari kami

Domino Jackpot Winner

TOP ENAM DEWA
No.TanggalNamaPriceWin
121/06 23:05ZHENK10murni enam6,666,000
221/06 22:14BANDIT1507murni enam3,333,000
321/06 22:10TULEM22murni enam3,333,000
421/06 21:48MASTERANUmurni enam6,666,000
521/06 21:12MRS84murni enam6,666,000
TOP BALAK
No.TanggalNamaPriceWin
121/06 23:15JANJI303balak50,000
221/06 23:10OKTBER89balak50,000
321/06 23:06TIKTOK6balak100,000
421/06 23:06OTOK62balak50,000
521/06 23:06F9945364balak100,000
LATEST JACKPOT
No.TanggalNamaPriceWin
121/06 23:16SETIABGZmurni kecil50,000
221/06 23:16DALTUPmurni besar50,000
321/06 23:16VIRLYmurni besar5,000
421/06 23:16SATRIA7580murni kecil25,000
521/06 23:15JANJI303balak50,000
621/06 23:15TEMPEKU123murni kecil5,000
721/06 23:15EMANEKOKmurni kecil50,000
821/06 23:15REIHAN99murni kecil50,000
921/06 23:14QTQVNCJATVmurni besar50,000
1021/06 23:13PASER456murni kecil50,000
1121/06 23:13J33XP00Tmurni besar25,000
1221/06 23:13BRUR41murni kecil5,000
1321/06 23:12AGOY33murni kecil50,000
1421/06 23:12WKGOMBEL01murni besar25,000
1521/06 23:11IRSAD1111murni kecil25,000
1621/06 23:11SAKOY82murni besar50,000
1721/06 23:11OGOAN123murni besar50,000
1821/06 23:10OKTBER89balak50,000
1921/06 23:10LB881007murni kecil5,000
2021/06 23:09BU5Umurni kecil5,000
2121/06 23:06TIKTOK6balak100,000
2221/06 23:06AUPARMA505murni besar25,000
2321/06 23:06R4M4777murni kecil50,000
2421/06 23:06OTOK62balak50,000
2521/06 23:06F9945364balak100,000
2621/06 23:05QTQVNCJATVbalak50,000
2721/06 23:05LUDO8872murni kecil5,000
2821/06 23:05LULU29murni besar50,000
2921/06 23:05ANOM198murni besar50,000
3021/06 23:05ZHENK10murni enam6,666,000
3121/06 23:04F51F03F2murni kecil50,000
3221/06 23:04PAYOUT17murni besar25,000
3321/06 23:04BAKSOCNmurni kecil50,000
3421/06 23:04ENDRI12345murni kecil50,000
3521/06 23:04ARIEF1717balak100,000
3621/06 23:03GROGOL_99murni besar5,000
3721/06 23:03SHILA17lucky992,500
3821/06 23:03M4NCIP007balak10,000
3921/06 23:02JOYSPADE20balak50,000
4021/06 23:02MAKKAU98lucky9925,000
4121/06 23:01DIKT4TOR99balak50,000
4221/06 23:01KULU3murni besar25,000
4321/06 23:00CEBOL7711murni besar25,000
4421/06 23:00LEBARAN00murni besar50,000
4521/06 23:00BARBARQQbalak100,000
4621/06 22:59ANOM198murni besar50,000
4721/06 22:59LIGERZEROmurni kecil25,000
4821/06 22:59EMBEESmurni besar50,000
4921/06 22:58UWETT02lucky992,500
5021/06 22:58LEBARAN00murni kecil50,000

Ceme Multi Jackpot System

Jackpot dilihat dari gabungan kartu pemain dengan kartu bandar. Bandar harus membeli jackpot sebanyak jumlah player yang sedang duduk. Sebagai contoh bila terdapat 3 pemain duduk bermain, dan bandar memutuskan untuk membeli jackpot Rp 1.000, maka pada periode tersebut bandar akan membeli jackpot sebanyak 3xRp1.000 = Rp3.000.

Jackpot bukanlah suatu keharusan untuk dibeli, namun kami memberikan suatu fitur tambahan untuk member tercinta dari www.mustikapoker.org.

Terdapat tiga pilihan harga jackpot yang bisa anda beli yaitu :100,500 dan 1000 rupiah.

Hadiah dari Multi jackpot system www.mustikapoker.org

  1. Murni Kecil x 50 harga jackpot yang anda beli.
      (contoh:anda membeli 1000 maka:1000 X 50 = 50.000)
  2. Murni Besar x 50 harga jackpot yang anda beli
      (contoh:anda membeli 1000 maka:1000 X 50 = 50.000)
  3. BALAK x 200 harga jackpot yang anda beli
      (contoh:anda membeli 1000 maka:1000 X 200 = 200.000)
  4. ENAM DEWA x 6666 harga jackpot yang anda beli
      (contoh:anda membeli 1000 maka:1000 X 6666 = 6.666.000)

Demikian adalah penjelasan dari Multi Jackpot www.mustikapoker.org terima kasih dan selamat bermain salam hoki dari kami

Ceme Jackpot Winner

TOP ENAM DEWA
No.TanggalNamaPriceWin
121/06 23:14FANDY1808murni enam666,600
221/06 23:14ULTRA23murni enam666,600
321/06 22:53S3T14N1murni enam6,666,000
421/06 22:46BIGEN21murni enam6,666,000
521/06 22:46PAPAHNIHmurni enam3,333,000
TOP BALAK
No.TanggalNamaPriceWin
121/06 23:16IEBE1234balak100,000
221/06 23:16PERU2balak200,000
321/06 23:16A95D1242balak200,000
421/06 23:15ADITXbalak200,000
521/06 23:15DEEP_699balak200,000
LATEST JACKPOT
No.TanggalNamaPriceWin
121/06 23:16SEXSULIS69murni besar5,000
221/06 23:16NEKNOK00murni besar5,000
321/06 23:16SEXSULIS69murni besar5,000
421/06 23:16SUDE1110murni besar50,000
521/06 23:16ZAAKY66murni kecil25,000
621/06 23:16MELASSO19murni kecil5,000
721/06 23:16AMMARRmurni kecil50,000
821/06 23:16BAMSSS99murni kecil5,000
921/06 23:16IEBE1234balak100,000
1021/06 23:16PERU2balak200,000
1121/06 23:16CIRAONKmurni kecil5,000
1221/06 23:16C51K87897murni besar5,000
1321/06 23:16BG312ZAmurni besar5,000
1421/06 23:16BUN9SU79murni kecil50,000
1521/06 23:16A95D1242balak200,000
1621/06 23:15ANJAR323murni besar50,000
1721/06 23:15ADITXbalak200,000
1821/06 23:15DEEP_699balak200,000
1921/06 23:15YOS0001murni kecil5,000
2021/06 23:15ALDYFEBRIbalak200,000
2121/06 23:15K7E0TGAVLVmurni kecil25,000
2221/06 23:15JHON_KEI99murni kecil50,000
2321/06 23:15GOJENK99murni kecil50,000
2421/06 23:15JPFFP2WVBVmurni kecil50,000
2521/06 23:15NANTIJUGALmurni kecil5,000
2621/06 23:15ROMBE91balak20,000
2721/06 23:15NGENTOT63murni besar50,000
2821/06 23:15DEOWAKASbalak20,000
2921/06 23:15BLABAKbalak200,000
3021/06 23:15AMSK3CEmurni kecil50,000
3121/06 23:15DAFIDPmurni kecil5,000
3221/06 23:15A95D1242murni kecil50,000
3321/06 23:15APASILO4balak20,000
3421/06 23:15HARAT001balak200,000
3521/06 23:15ZIMA35murni kecil25,000
3621/06 23:15RINA211murni kecil25,000
3721/06 23:15ANDA44murni besar25,000
3821/06 23:15IGUS378murni besar5,000
3921/06 23:15IJOROYO77balak200,000
4021/06 23:14ATMOKO11murni besar50,000
4121/06 23:14DN4DLODROK12murni besar50,000
4221/06 23:14ATMOKO11murni besar50,000
4321/06 23:14HEXOS71balak20,000
4421/06 23:14JIBO123balak200,000
4521/06 23:14AA7F5F3Cbalak20,000
4621/06 23:14FANDY1808murni enam666,600
4721/06 23:14ULTRA23murni enam666,600
4821/06 23:14MR_FLAV4murni kecil5,000
4921/06 23:14HIU182balak100,000
5021/06 23:14JUKUEJAA01murni besar5,000